Location: Bourth
(48.7670°N, 0.8113°E)
Time: 00:41:39
(UTC+01:00)

ISS - Visible Passes

Search period start: 02 March 2021 00:00
Search period end: 12 March 2021 00:00
Orbit: 417 x 422 km, 51.6° (Epoch: 01 March)

Date Brightness Start Highest point End Pass type
(mag) Time Alt. Az. Time Alt. Az. Time Alt. Az.
02 Mar -3.4 05:41:08 54° NNW 05:41:15 54° N 05:44:34 10° ENE visible
03 Mar -1.5 04:55:28 25° ENE 04:55:28 25° ENE 04:57:04 10° ENE visible
03 Mar -3.2 06:28:25 17° WNW 06:30:49 52° N 06:34:07 10° E visible
04 Mar -3.2 05:42:45 44° NNW 05:43:16 49° N 05:46:34 10° ENE visible
05 Mar -1.8 04:57:05 29° ENE 04:57:05 29° ENE 04:59:01 10° ENE visible
05 Mar -3.6 06:30:02 14° WNW 06:32:47 72° NNE 06:36:08 10° ESE visible
06 Mar -0.2 04:11:27 10° ENE 04:11:27 10° ENE 04:11:30 10° ENE visible
06 Mar -3.4 05:44:24 42° NW 05:45:16 59° N 05:48:37 10° E visible
07 Mar -2.2 04:58:47 35° ENE 04:58:47 35° ENE 05:01:02 10° E visible
07 Mar -3.7 06:31:45 13° WNW 06:34:38 65° SSW 06:37:58 10° SE visible
08 Mar -0.3 04:13:14 11° ENE 04:13:14 11° ENE 04:13:28 10° ENE visible
08 Mar -3.9 05:46:12 43° WNW 05:47:11 89° SSW 05:50:33 10° ESE visible
09 Mar -2.5 05:00:43 40° E 05:00:43 40° E 05:03:02 10° ESE visible
09 Mar -2.7 06:33:42 12° W 06:36:19 30° SW 06:39:19 10° SSE visible
10 Mar -0.4 04:15:21 11° E 04:15:21 11° E 04:15:29 10° E visible
10 Mar -3.4 05:48:19 39° WSW 05:48:56 44° SSW 05:52:09 10° SE visible
11 Mar -2.1 05:03:04 28° SE 05:03:04 28° SE 05:04:51 10° SE visible
11 Mar -1.7 06:36:04 10° WSW 06:37:48 14° SW 06:39:34 10° SSW visible
